Tracking 35334 objects as of 13-Sep-2026
HD Live streaming from Space Station
objects crossing your sky now

STARLINK-4214

Track STARLINK-4214 now!
10-day predictions
STARLINK-4214 is classified as:


NORAD ID: 52877
Int'l Code: 2022-062AZ
Launch date: June 17, 2022
Source: United States (US)
Launch site: AIR FORCE EASTERN TEST RANGE (AFETR)
Your satellite tracking list
Your tracking list is empty




NASA's NSSDC Master Catalog

Two Line Element Set (TLE):
1 52877U 22062AZ  26256.14154782  .00001517  00000-0  56022-4 0  9997
2 52877  53.1595 240.3182 0001079  93.1812 266.9314 15.34394736234533
Source of the keplerian elements: AFSPC